Showing default

AISAT, 40054

Orbit data source: Space-Track

AISAT, 40054 is a payload satellite owned by DLR (DE) in SSO that was launched on Mon, 30 Jun 2014 UTC via a PSLV launch vehicle from the Sirharikota (SRI). Payload-class satellites include a variety of spacecraft equipped with specific instruments for various scientific and technological missions. These include communications satellites like Starlink; space stations such as the ISS; scientific satellites like the Hubble; Earth observation satellites from companies like Planet Labs, Umbra, and HawkEye 360; GPS; miniature CubeSats for education and research; and military/defense satellites.

Loading next visibility...
Identifier
40054, 2014-034B
Orbit
SSO
Country
Flag of DEDE / GER
Related business
Manufacturer
DLR-ISS
Mission
Non-operational Civil Communications
Bus & Motor
CLAVIS, Unknown motor
Mass
10 kg wet, 10 kg dry
Launch date (UTC)
2014-06-30 (11 years ago)
Launch vehicle
PSLV
Launch site
Sirharikota (SRI)
Object type
Payload
Rocket body
Debris
Shape & HBR
Box + 1 Truss, 2.0 m
Radar Cross Section
0.040 m², Medium (>0.1 m² and < 1m²)

Expand to show TLE details & history
Last TLE update: 6 hours ago

TLE from 6 hours ago
0 AISAT
1 40054U 14034B   25243.59422516  .00014011  00000-0  10982-2 0  9994
2 40054  98.2588 131.2859 0014156 108.1010 252.1755 15.01026661603646
Epoch: 2025-08-31T14:15Z
TLE epoch observation values (Epoch: 2025-08-31T14:15:41.053Z)
Latitude
-0.00009°
Longitude
-62.64707°
Altitude
569.79 km
Speed
7.574 km/s
True Right ascension
08h 45m 08s
True Declination
0° 00' 00"
Sunlit
Object was in daylight at epoch
Visualization orbit readout
Latitude
Unknown
Longitude
Unknown
Altitude
Unknown
Speed
Unknown
Apparent Right ascension
Unknown
Apparent Declination
Unknown
Sunlit
N/A
Visualization observer readout
Local Sidereal Time
12:19:59
Azimuth
Unknown
Elevation
Unknown
Doppler factor
Unknown
Orbital elements
Apogee altitude
570.581 km
Perigee altitude
550.936 km
Semi-major axis
6,938.896 km
Eccentricity
0.00142
Inclination
98.2588°
RAAN
131.2859°
Arg. of periapsis
108.101°
True anomaly
252.02115°
Mean anomaly
252.1755°
Eccentric anomaly
252.09832°
Mean motion
3.75498 °/min
Orbital period
95.87 mins
BSTAR
0.0010982
Loading maneuver chart data...
Computing Atmospheric mass density...
Loading historical data...
Loading historical data...
Loading historical data...
Loading historical data...
Loading historical data...
Loading historical data...
Loading historical data...
Other satellites on launch #34 in the year 2014 (2014-06-30 UTC)

Documentation

Showing up to 5 results
|